Time,TemperatureF,DewpointF,PressureIn,WindDirection,WindDirectionDegrees,WindSpeedMPH,WindSpeedGustMPH,Humidity,HourlyPrecipIn,Conditions,Clouds,dailyrainin,SoftwareType,DateUTC
2013-02-12 00:01:00,50.0,49.0,30.08,SE,136,0.0,1.0,95,0.00,,,0.15,,2013-02-12 05:01:00,
2013-02-12 00:11:00,50.0,49.0,30.08,SE,136,0.0,0.0,95,0.00,,,0.15,,2013-02-12 05:11:00,
2013-02-12 00:21:00,50.0,49.0,30.08,SE,136,0.0,0.0,95,0.00,,,0.15,,2013-02-12 05:21:00,
2013-02-12 00:32:00,49.0,48.0,30.08,SE,136,0.0,0.0,95,0.00,,,0.15,,2013-02-12 05:32:00,
2013-02-12 00:42:00,49.0,48.0,30.08,SE,136,0.0,0.0,95,0.00,,,0.15,,2013-02-12 05:42:00,
2013-02-12 00:52:00,48.0,47.0,30.10,SE,136,0.0,0.0,95,0.00,,,0.15,,2013-02-12 05:52:00,
2013-02-12 01:02:00,48.0,47.0,30.10,SE,136,0.0,0.0,95,0.00,,,0.14,,2013-02-12 06:02:00,
2013-02-12 01:12:00,48.0,47.0,30.11,SE,136,0.0,1.0,95,0.00,,,0.14,,2013-02-12 06:12:00,
2013-02-12 01:22:00,48.0,47.0,30.11,SE,136,0.0,1.0,95,0.00,,,0.14,,2013-02-12 06:22:00,
2013-02-12 01:32:00,48.0,47.0,30.11,SE,136,0.0,0.0,95,0.00,,,0.14,,2013-02-12 06:32:00,
2013-02-12 01:42:00,48.0,47.0,30.10,SE,136,0.0,0.0,95,0.00,,,0.14,,2013-02-12 06:42:00,
2013-02-12 01:52:00,48.0,47.0,30.10,SE,136,0.0,0.0,95,0.00,,,0.14,,2013-02-12 06:52:00,
2013-02-12 02:01:00,48.0,47.0,30.11,SE,136,0.0,0.0,95,0.00,,,0.13,,2013-02-12 07:01:00,
2013-02-12 02:11:00,48.0,47.0,30.11,SE,136,0.0,0.0,95,0.00,,,0.13,,2013-02-12 07:11:00,
2013-02-12 02:21:00,47.0,46.0,30.10,SE,136,0.0,0.0,95,0.00,,,0.13,,2013-02-12 07:21:00,
2013-02-12 02:32:00,46.0,45.0,30.10,SE,136,0.0,0.0,95,0.00,,,0.13,,2013-02-12 07:32:00,
2013-02-12 02:42:00,46.0,45.0,30.10,SE,136,0.0,0.0,95,0.00,,,0.13,,2013-02-12 07:42:00,
2013-02-12 02:52:00,45.0,44.0,30.11,SE,136,0.0,0.0,95,0.00,,,0.13,,2013-02-12 07:52:00,
2013-02-12 03:01:00,45.0,44.0,30.11,SE,136,0.0,0.0,95,0.00,,,0.12,,2013-02-12 08:01:00,
2013-02-12 03:11:00,45.0,44.0,30.11,SE,136,0.0,0.0,95,0.00,,,0.12,,2013-02-12 08:11:00,
2013-02-12 03:21:00,44.0,43.0,30.10,SE,136,0.0,0.0,95,0.00,,,0.12,,2013-02-12 08:21:00,
2013-02-12 03:32:00,44.0,43.0,30.11,SE,136,0.0,0.0,95,0.00,,,0.12,,2013-02-12 08:32:00,
2013-02-12 03:42:00,44.0,43.0,30.11,SE,136,0.0,0.0,95,0.00,,,0.12,,2013-02-12 08:42:00,
2013-02-12 03:52:00,44.0,43.0,30.11,SE,136,0.0,0.0,95,0.00,,,0.12,,2013-02-12 08:52:00,
2013-02-12 04:02:00,44.0,43.0,30.11,SE,136,0.0,0.0,95,0.00,,,0.12,,2013-02-12 09:02:00,
2013-02-12 04:11:00,44.0,43.0,30.11,SE,136,0.0,0.0,95,0.00,,,0.12,,2013-02-12 09:11:00,
2013-02-12 04:21:00,44.0,43.0,30.09,SE,136,0.0,0.0,95,0.00,,,0.12,,2013-02-12 09:21:00,
2013-02-12 04:32:00,43.0,42.0,30.09,SE,136,0.0,0.0,95,0.00,,,0.12,,2013-02-12 09:32:00,
2013-02-12 04:42:00,43.0,42.0,30.11,SE,136,0.0,0.0,95,0.00,,,0.12,,2013-02-12 09:42:00,
2013-02-12 04:52:00,43.0,42.0,30.11,SE,136,0.0,0.0,95,0.00,,,0.12,,2013-02-12 09:52:00,
2013-02-12 05:01:00,43.0,42.0,30.11,SE,136,0.0,0.0,95,0.00,,,0.12,,2013-02-12 10:01:00,
2013-02-12 05:11:00,42.0,40.0,30.12,SE,136,0.0,1.0,94,0.00,,,0.12,,2013-02-12 10:11:00,
2013-02-12 05:21:00,42.0,40.0,30.12,SE,136,0.0,1.0,94,0.00,,,0.12,,2013-02-12 10:21:00,
2013-02-12 05:32:00,42.0,40.0,30.13,SE,136,0.0,1.0,93,0.00,,,0.12,,2013-02-12 10:32:00,
2013-02-12 05:43:00,42.0,40.0,30.13,SE,136,0.0,1.0,93,0.00,,,0.12,,2013-02-12 10:43:00,
2013-02-12 05:52:00,42.0,40.0,30.13,SE,136,0.0,0.0,91,0.00,,,0.12,,2013-02-12 10:52:00,
2013-02-12 06:01:00,42.0,39.0,30.13,SE,136,0.0,0.0,90,0.00,,,0.09,,2013-02-12 11:01:00,
2013-02-12 06:11:00,42.0,39.0,30.13,SE,136,0.0,0.0,90,0.00,,,0.09,,2013-02-12 11:11:00,
2013-02-12 06:22:00,41.0,38.0,30.12,SE,136,0.0,1.0,90,0.00,,,0.09,,2013-02-12 11:22:00,
2013-02-12 06:32:00,41.0,38.0,30.12,SE,136,0.0,0.0,89,0.00,,,0.09,,2013-02-12 11:32:00,
2013-02-12 06:42:00,41.0,38.0,30.12,SE,136,0.0,0.0,89,0.00,,,0.09,,2013-02-12 11:42:00,
2013-02-12 06:52:00,41.0,38.0,30.14,SE,136,0.0,0.0,90,0.00,,,0.09,,2013-02-12 11:52:00,
2013-02-12 07:01:00,40.0,37.0,30.14,SE,136,0.0,0.0,89,0.00,,,0.03,,2013-02-12 12:01:00,
2013-02-12 07:11:00,40.0,37.0,30.14,SSE,150,0.0,1.0,88,0.00,,,0.03,,2013-02-12 12:11:00,
2013-02-12 07:21:00,40.0,37.0,30.14,SSE,150,0.0,1.0,88,0.00,,,0.03,,2013-02-12 12:21:00,
2013-02-12 07:32:00,40.0,36.0,30.14,SSE,150,0.0,0.0,87,0.00,,,0.03,,2013-02-12 12:32:00,
2013-02-12 07:42:00,40.0,36.0,30.14,SSE,150,0.0,0.0,87,0.00,,,0.03,,2013-02-12 12:42:00,
2013-02-12 07:53:00,39.0,35.0,30.15,SSE,165,0.0,1.0,86,0.00,,,0.03,,2013-02-12 12:53:00,
2013-02-12 08:01:00,39.0,35.0,30.15,SSE,166,0.0,0.0,87,0.00,,,0.01,,2013-02-12 13:01:00,
2013-02-12 08:11:00,38.0,34.0,30.15,SSE,165,0.0,0.0,86,0.00,,,0.01,,2013-02-12 13:11:00,
2013-02-12 08:22:00,38.0,34.0,30.15,SSE,165,0.0,0.0,86,0.00,,,0.01,,2013-02-12 13:22:00,
2013-02-12 08:32:00,39.0,36.0,30.18,SSE,166,0.0,0.0,88,0.00,,,0.01,,2013-02-12 13:32:00,
2013-02-12 08:42:00,39.0,36.0,30.18,SSE,166,0.0,0.0,88,0.00,,,0.01,,2013-02-12 13:42:00,
2013-02-12 08:52:00,39.0,36.0,30.18,SSE,165,0.0,0.0,89,0.00,,,0.01,,2013-02-12 13:52:00,
2013-02-12 09:01:00,40.0,37.0,30.19,SSE,165,0.0,0.0,89,0.00,,,0.01,,2013-02-12 14:01:00,
2013-02-12 09:12:00,40.0,37.0,30.19,SSE,165,0.0,0.0,89,0.00,,,0.01,,2013-02-12 14:12:00,
2013-02-12 09:22:00,43.0,39.0,30.19,SSE,166,0.0,0.0,87,0.00,,,0.01,,2013-02-12 14:22:00,
2013-02-12 09:32:00,44.0,38.0,30.19,SSE,165,0.0,0.0,80,0.00,,,0.01,,2013-02-12 14:32:00,
2013-02-12 09:42:00,44.0,38.0,30.19,SSE,165,0.0,0.0,80,0.00,,,0.01,,2013-02-12 14:42:00,
2013-02-12 09:52:00,47.0,35.0,30.20,East,83,0.0,2.0,64,0.00,,,0.01,,2013-02-12 14:52:00,
2013-02-12 10:02:00,48.0,36.0,30.20,East,83,1.0,1.0,64,0.00,,,0.00,,2013-02-12 15:02:00,
2013-02-12 10:11:00,50.0,37.0,30.20,ENE,70,0.0,3.0,61,0.00,,,0.00,,2013-02-12 15:11:00,
2013-02-12 10:21:00,50.0,37.0,30.20,ENE,70,0.0,3.0,61,0.00,,,0.00,,2013-02-12 15:21:00,
2013-02-12 10:32:00,51.0,37.0,30.20,ENE,69,1.0,2.0,58,0.00,,,0.00,,2013-02-12 15:32:00,
2013-02-12 10:42:00,51.0,37.0,30.20,ENE,69,1.0,2.0,58,0.00,,,0.00,,2013-02-12 15:42:00,
2013-02-12 10:52:00,53.0,35.0,30.19,ENE,58,2.0,4.0,51,0.00,,,0.00,,2013-02-12 15:52:00,
2013-02-12 11:01:00,53.0,35.0,30.19,SW,221,0.0,4.0,50,0.00,,,0.00,,2013-02-12 16:01:00,
2013-02-12 11:11:00,53.0,35.0,30.19,SW,221,0.0,4.0,50,0.00,,,0.00,,2013-02-12 16:11:00,
2013-02-12 11:22:00,54.0,32.0,30.19,NE,41,1.0,3.0,43,0.00,,,0.00,,2013-02-12 16:22:00,
2013-02-12 11:32:00,54.0,33.0,30.18,WNW,283,0.0,3.0,44,0.00,,,0.00,,2013-02-12 16:32:00,
2013-02-12 11:42:00,54.0,33.0,30.18,WNW,283,0.0,3.0,44,0.00,,,0.00,,2013-02-12 16:42:00,
2013-02-12 11:52:00,55.0,32.0,30.16,SW,233,0.0,3.0,41,0.00,,,0.00,,2013-02-12 16:52:00,
2013-02-12 12:01:00,56.0,31.0,30.16,SW,235,0.0,5.0,39,0.00,,,0.00,,2013-02-12 17:01:00,
2013-02-12 12:12:00,56.0,31.0,30.16,SW,235,0.0,5.0,39,0.00,,,0.00,,2013-02-12 17:12:00,
2013-02-12 12:21:00,57.0,30.0,30.15,West,259,2.0,3.0,35,0.00,,,0.00,,2013-02-12 17:21:00,
2013-02-12 12:32:00,57.0,31.0,30.15,NW,307,0.0,3.0,37,0.00,,,0.00,,2013-02-12 17:32:00,
2013-02-12 12:42:00,57.0,31.0,30.15,NW,307,0.0,3.0,37,0.00,,,0.00,,2013-02-12 17:42:00,
2013-02-12 12:52:00,57.0,30.0,30.14,WSW,244,2.0,4.0,35,0.00,,,0.00,,2013-02-12 17:52:00,
2013-02-12 13:02:00,58.0,31.0,30.13,ENE,64,2.0,4.0,36,0.00,,,0.00,,2013-02-12 18:02:00,
2013-02-12 13:11:00,58.0,31.0,30.11,ENE,74,1.0,3.0,35,0.00,,,0.00,,2013-02-12 18:11:00,
2013-02-12 13:23:00,58.0,31.0,30.11,ENE,74,1.0,3.0,35,0.00,,,0.00,,2013-02-12 18:23:00,
2013-02-12 13:32:00,58.0,31.0,30.11,ENE,72,1.0,2.0,35,0.00,,,0.00,,2013-02-12 18:32:00,
2013-02-12 13:41:00,58.0,31.0,30.11,ENE,72,1.0,2.0,35,0.00,,,0.00,,2013-02-12 18:41:00,
2013-02-12 13:52:00,59.0,31.0,30.11,ENE,69,0.0,3.0,34,0.00,,,0.00,,2013-02-12 18:52:00,
2013-02-12 14:02:00,59.0,30.0,30.11,ENE,69,1.0,4.0,33,0.00,,,0.00,,2013-02-12 19:02:00,
2013-02-12 14:11:00,59.0,30.0,30.11,ENE,69,1.0,4.0,33,0.00,,,0.00,,2013-02-12 19:11:00,
2013-02-12 14:21:00,59.0,29.0,30.11,ENE,74,2.0,3.0,32,0.00,,,0.00,,2013-02-12 19:21:00,
2013-02-12 14:31:00,59.0,29.0,30.11,ENE,65,1.0,3.0,32,0.00,,,0.00,,2013-02-12 19:31:00,
2013-02-12 14:42:00,58.0,29.0,30.11,ENE,65,0.0,3.0,33,0.00,,,0.00,,2013-02-12 19:42:00,
2013-02-12 14:52:00,58.0,29.0,30.11,ENE,65,0.0,3.0,33,0.00,,,0.00,,2013-02-12 19:52:00,
2013-02-12 15:01:00,59.0,31.0,30.10,NE,55,0.0,2.0,34,0.00,,,0.00,,2013-02-12 20:01:00,
2013-02-12 15:11:00,59.0,31.0,30.10,NE,55,0.0,2.0,34,0.00,,,0.00,,2013-02-12 20:11:00,
2013-02-12 15:21:00,59.0,31.0,30.09,NE,55,0.0,2.0,35,0.00,,,0.00,,2013-02-12 20:21:00,
2013-02-12 15:32:00,59.0,33.0,30.10,NE,55,0.0,0.0,38,0.00,,,0.00,,2013-02-12 20:32:00,
2013-02-12 15:41:00,59.0,33.0,30.10,NE,55,0.0,0.0,38,0.00,,,0.00,,2013-02-12 20:41:00,
2013-02-12 15:52:00,58.0,34.0,30.09,NE,55,0.0,1.0,40,0.00,,,0.00,,2013-02-12 20:52:00,
2013-02-12 16:01:00,58.0,34.0,30.09,NE,55,0.0,1.0,41,0.00,,,0.00,,2013-02-12 21:01:00,
2013-02-12 16:11:00,58.0,34.0,30.09,NE,55,0.0,1.0,41,0.00,,,0.00,,2013-02-12 21:11:00,
2013-02-12 16:21:00,57.0,35.0,30.09,NE,55,0.0,0.0,44,0.00,,,0.00,,2013-02-12 21:21:00,
2013-02-12 16:31:00,57.0,37.0,30.09,NE,55,0.0,0.0,47,0.00,,,0.00,,2013-02-12 21:31:00,
2013-02-12 16:42:00,56.0,36.0,30.09,NE,55,0.0,0.0,46,0.00,,,0.00,,2013-02-12 21:42:00,
2013-02-12 16:52:00,56.0,36.0,30.09,NE,55,0.0,0.0,46,0.00,,,0.00,,2013-02-12 21:52:00,
2013-02-12 17:01:00,56.0,37.0,30.10,NE,55,0.0,0.0,48,0.00,,,0.00,,2013-02-12 22:01:00,
2013-02-12 17:12:00,56.0,37.0,30.10,NE,55,0.0,0.0,48,0.00,,,0.00,,2013-02-12 22:12:00,
2013-02-12 17:21:00,55.0,38.0,30.08,NE,55,0.0,0.0,52,0.00,,,0.00,,2013-02-12 22:21:00,
2013-02-12 17:32:00,54.0,38.0,30.08,NE,55,0.0,0.0,54,0.00,,,0.00,,2013-02-12 22:32:00,
2013-02-12 17:42:00,54.0,38.0,30.08,NE,55,0.0,0.0,54,0.00,,,0.00,,2013-02-12 22:42:00,
2013-02-12 17:52:00,54.0,39.0,30.07,NE,55,0.0,0.0,56,0.00,,,0.00,,2013-02-12 22:52:00,
2013-02-12 18:01:00,53.0,39.0,30.07,NE,55,0.0,0.0,59,0.00,,,0.00,,2013-02-12 23:01:00,
2013-02-12 18:11:00,52.0,39.0,30.06,NE,55,0.0,0.0,60,0.00,,,0.00,,2013-02-12 23:11:00,
2013-02-12 18:21:00,52.0,39.0,30.06,NE,55,0.0,0.0,60,0.00,,,0.00,,2013-02-12 23:21:00,
2013-02-12 18:32:00,52.0,39.0,30.07,NE,55,0.0,0.0,61,0.00,,,0.00,,2013-02-12 23:32:00,
2013-02-12 18:42:00,52.0,39.0,30.07,NE,55,0.0,0.0,61,0.00,,,0.00,,2013-02-12 23:42:00,
2013-02-12 18:52:00,51.0,39.0,30.05,NE,55,0.0,0.0,63,0.00,,,0.00,,2013-02-12 23:52:00,
2013-02-12 19:02:00,50.0,38.0,30.04,NE,55,0.0,1.0,63,0.00,,,0.00,,2013-02-13 00:02:00,
2013-02-12 19:11:00,50.0,38.0,30.04,NE,55,0.0,1.0,63,0.00,,,0.00,,2013-02-13 00:11:00,
2013-02-12 19:21:00,50.0,39.0,30.02,NE,55,0.0,1.0,66,0.00,,,0.00,,2013-02-13 00:21:00,
2013-02-12 19:32:00,50.0,40.0,29.99,NE,55,0.0,0.0,68,0.00,,,0.00,,2013-02-13 00:32:00,
2013-02-12 19:42:00,50.0,40.0,29.99,NE,55,0.0,0.0,68,0.00,,,0.00,,2013-02-13 00:42:00,
2013-02-12 19:52:00,50.0,41.0,30.03,NE,55,0.0,0.0,71,0.00,,,0.00,,2013-02-13 00:52:00,
2013-02-12 20:01:00,49.0,40.0,30.06,NE,55,0.0,0.0,71,0.00,,,0.00,,2013-02-13 01:01:00,
2013-02-12 20:11:00,49.0,40.0,30.06,NE,55,0.0,0.0,71,0.00,,,0.00,,2013-02-13 01:11:00,
2013-02-12 20:21:00,49.0,41.0,30.09,NE,55,0.0,0.0,73,0.00,,,0.00,,2013-02-13 01:21:00,
2013-02-12 20:31:00,49.0,40.0,30.08,NE,55,0.0,1.0,71,0.00,,,0.00,,2013-02-13 01:31:00,
2013-02-12 20:42:00,49.0,40.0,30.08,NE,55,0.0,1.0,71,0.00,,,0.00,,2013-02-13 01:42:00,
2013-02-12 20:52:00,49.0,40.0,30.08,NE,55,0.0,1.0,70,0.00,,,0.00,,2013-02-13 01:52:00,
2013-02-12 21:01:00,49.0,41.0,30.08,NE,55,0.0,0.0,73,0.00,,,0.00,,2013-02-13 02:01:00,
2013-02-12 21:11:00,49.0,41.0,30.08,NE,55,0.0,0.0,73,0.00,,,0.00,,2013-02-13 02:11:00,
2013-02-12 21:22:00,49.0,40.0,30.06,NE,55,0.0,1.0,72,0.00,,,0.00,,2013-02-13 02:22:00,
2013-02-12 21:32:00,48.0,40.0,30.09,NE,55,0.0,1.0,73,0.00,,,0.00,,2013-02-13 02:32:00,
2013-02-12 21:42:00,48.0,40.0,30.09,NE,55,0.0,1.0,73,0.00,,,0.00,,2013-02-13 02:42:00,
2013-02-12 21:52:00,48.0,42.0,30.09,NE,55,0.0,0.0,79,0.00,,,0.00,,2013-02-13 02:52:00,
2013-02-12 22:01:00,48.0,42.0,30.09,NE,55,0.0,0.0,81,0.00,,,0.00,,2013-02-13 03:01:00,
2013-02-12 22:11:00,47.0,41.0,30.09,NE,55,0.0,0.0,81,0.00,,,0.00,,2013-02-13 03:11:00,
2013-02-12 22:21:00,47.0,41.0,30.09,NE,55,0.0,0.0,81,0.00,,,0.00,,2013-02-13 03:21:00,
2013-02-12 22:32:00,47.0,41.0,30.08,NE,55,0.0,0.0,81,0.00,,,0.00,,2013-02-13 03:32:00,
2013-02-12 22:42:00,47.0,41.0,30.08,NE,55,0.0,0.0,81,0.00,,,0.00,,2013-02-13 03:42:00,
2013-02-12 22:52:00,47.0,42.0,30.06,NE,55,0.0,0.0,83,0.00,,,0.00,,2013-02-13 03:52:00,
2013-02-12 23:01:00,47.0,42.0,30.06,NE,55,0.0,1.0,84,0.00,,,0.00,,2013-02-13 04:01:00,
2013-02-12 23:11:00,47.0,42.0,30.06,NE,55,0.0,1.0,84,0.00,,,0.00,,2013-02-13 04:11:00,
2013-02-12 23:21:00,46.0,41.0,30.06,NE,55,0.0,0.0,84,0.00,,,0.00,,2013-02-13 04:21:00,
2013-02-12 23:32:00,46.0,42.0,30.06,NE,55,0.0,0.0,85,0.00,,,0.00,,2013-02-13 04:32:00,
2013-02-12 23:42:00,46.0,42.0,30.06,NE,55,0.0,0.0,85,0.00,,,0.00,,2013-02-13 04:42:00,
2013-02-12 23:52:00,46.0,42.0,30.04,NE,55,0.0,0.0,85,0.00,,,0.00,,2013-02-13 04:52:00,